| time (UTC) | temp C | wind direction | speed KPH | gust KPH | rain 1hr cm | rain 24hr cm | rain mn cm | humidity % | barometer mb |
| 20260506051033 | 3 | 145 | 0.0 | 3.2 | 0.00 | 0.33 | 0.00 | 87 | 1017.6 |
| 20260506050534 | 3 | 0 | 0.0 | 3.2 | 0.00 | 0.33 | 0.00 | 86 | 1017.7 |
| 20260506045035 | 3 | 0 | 0.0 | 3.2 | 0.00 | 0.33 | 0.00 | 86 | 1017.5 |
| 20260506044553 | 3 | 28 | 0.0 | 3.2 | 0.00 | 0.33 | 0.00 | 86 | 1017.5 |
| 20260506044033 | 3 | 35 | 0.0 | 3.2 | 0.00 | 0.33 | 0.00 | 86 | 1017.5 |
| 20260506043536 | 3 | 15 | 0.0 | 3.2 | 0.00 | 0.33 | 0.00 | 86 | 1017.4 |
| 20260506043047 | 3 | 68 | 1.6 | 3.2 | 0.00 | 0.33 | 0.00 | 86 | 1017.4 |
| 20260506042533 | 3 | 56 | 0.0 | 3.2 | 0.00 | 0.33 | 0.00 | 86 | 1017.6 |
| 20260506042036 | 3 | 46 | 0.0 | 3.2 | 0.00 | 0.33 | 0.00 | 86 | 1017.6 |
| 20260506041559 | 3 | 0 | 0.0 | 1.6 | 0.00 | 0.33 | 0.00 | 87 | 1017.5 |
| 20260506041036 | 3 | 0 | 0.0 | 3.2 | 0.00 | 0.33 | 0.00 | 86 | 1017.6 |
| 20260506040536 | 3 | 56 | 0.0 | 3.2 | 0.00 | 0.33 | 0.00 | 86 | 1017.6 |
| 20260506040048 | 3 | 56 | 0.0 | 3.2 | 0.00 | 0.33 | 0.00 | 87 | 1017.5 |
| 20260506035536 | 3 | 76 | 0.0 | 1.6 | 0.00 | 0.33 | 0.00 | 86 | 1017.5 |
| 20260506035038 | 3 | 56 | 0.0 | 1.6 | 0.00 | 0.33 | 0.00 | 86 | 1017.6 |
| 20260506034545 | 3 | 0 | 0.0 | 1.6 | 0.00 | 0.33 | 0.00 | 86 | 1017.6 |
| 20260506034033 | 3 | 0 | 0.0 | 3.2 | 0.00 | 0.33 | 0.00 | 86 | 1017.6 |
| 20260506033537 | 3 | 0 | 0.0 | 3.2 | 0.00 | 0.33 | 0.00 | 86 | 1017.6 |
| 20260506033051 | 3 | 0 | 0.0 | 3.2 | 0.00 | 0.33 | 0.00 | 86 | 1017.7 |
| 20260506032533 | 3 | 46 | 0.0 | 3.2 | 0.00 | 0.33 | 0.00 | 86 | 1017.6 |
| 20260506032033 | 3 | 76 | 0.0 | 4.8 | 0.00 | 0.33 | 0.00 | 86 | 1017.7 |
| 20260506031547 | 3 | 56 | 1.6 | 4.8 | 0.00 | 0.33 | 0.00 | 86 | 1017.7 |
| 20260506031035 | 3 | 63 | 1.6 | 4.8 | 0.00 | 0.33 | 0.00 | 86 | 1017.8 |
| 20260506030535 | 3 | 76 | 0.0 | 3.2 | 0.00 | 0.33 | 0.00 | 86 | 1017.7 |
| 20260506030048 | 3 | 0 | 0.0 | 3.2 | 0.00 | 0.33 | 0.00 | 86 | 1017.8 |
| 20260506025535 | 3 | 0 | 0.0 | 3.2 | 0.00 | 0.33 | 0.00 | 86 | 1017.7 |
| 20260506025033 | 3 | 0 | 0.0 | 3.2 | 0.00 | 0.33 | 0.00 | 86 | 1017.8 |
| 20260506024553 | 3 | 0 | 0.0 | 3.2 | 0.00 | 0.33 | 0.00 | 86 | 1017.7 |
| 20260506024033 | 3 | 0 | 0.0 | 3.2 | 0.00 | 0.33 | 0.00 | 86 | 1017.8 |
| 20260506023533 | 3 | 46 | 0.0 | 3.2 | 0.00 | 0.33 | 0.00 | 86 | 1017.7 |
| 20260506023053 | 3 | 35 | 0.0 | 3.2 | 0.00 | 0.33 | 0.00 | 87 | 1017.8 |
| 20260506022535 | 4 | 63 | 0.0 | 3.2 | 0.00 | 0.33 | 0.00 | 87 | 1017.8 |
| 20260506022034 | 4 | 0 | 0.0 | 3.2 | 0.00 | 0.33 | 0.00 | 87 | 1017.6 |
| 20260506021554 | 4 | 20 | 0.0 | 3.2 | 0.00 | 0.33 | 0.00 | 87 | 1017.8 |
| 20260506021033 | 4 | 56 | 0.0 | 3.2 | 0.00 | 0.33 | 0.00 | 87 | 1017.7 |
| 20260506020533 | 4 | 63 | 0.0 | 3.2 | 0.00 | 0.33 | 0.00 | 87 | 1017.7 |
| 20260506020048 | 4 | 56 | 1.6 | 3.2 | 0.00 | 0.33 | 0.00 | 87 | 1017.7 |
| 20260506015533 | 4 | 53 | 1.6 | 4.8 | 0.00 | 0.33 | 0.00 | 87 | 1017.8 |
| 20260506015037 | 4 | 46 | 1.6 | 4.8 | 0.00 | 0.33 | 0.00 | 87 | 1017.9 |
| 20260506014552 | 4 | 49 | 1.6 | 3.2 | 0.00 | 0.33 | 0.00 | 87 | 1017.8 |
| 20260506014035 | 4 | 46 | 1.6 | 3.2 | 0.00 | 0.33 | 0.00 | 87 | 1017.8 |
| 20260506013534 | 4 | 53 | 1.6 | 3.2 | 0.00 | 0.33 | 0.00 | 87 | 1017.8 |
| 20260506013048 | 4 | 46 | 0.0 | 3.2 | 0.00 | 0.33 | 0.00 | 87 | 1017.8 |
| 20260506012533 | 4 | 39 | 0.0 | 3.2 | 0.00 | 0.33 | 0.00 | 87 | 1017.9 |
| 20260506012035 | 4 | 0 | 0.0 | 1.6 | 0.00 | 0.33 | 0.00 | 87 | 1017.8 |
| 20260506011547 | 4 | 46 | 0.0 | 4.8 | 0.00 | 0.33 | 0.00 | 87 | 1018.0 |
| 20260506011033 | 4 | 0 | 0.0 | 4.8 | 0.00 | 0.33 | 0.00 | 87 | 1017.8 |
| 20260506010537 | 4 | 51 | 1.6 | 4.8 | 0.00 | 0.33 | 0.00 | 87 | 1017.7 |
| 20260506010054 | 4 | 39 | 0.0 | 3.2 | 0.00 | 0.33 | 0.00 | 87 | 1017.8 |
| 20260506005537 | 4 | 46 | 0.0 | 3.2 | 0.00 | 0.33 | 0.00 | 86 | 1017.9 |
| 20260506005033 | 4 | 46 | 0.0 | 3.2 | 0.00 | 0.33 | 0.00 | 86 | 1017.9 |
| 20260506004556 | 4 | 28 | 0.0 | 3.2 | 0.00 | 0.33 | 0.00 | 86 | 1017.9 |
| 20260506004033 | 4 | 0 | 0.0 | 3.2 | 0.00 | 0.33 | 0.00 | 86 | 1018.0 |
| 20260506003533 | 4 | 0 | 1.6 | 3.2 | 0.00 | 0.33 | 0.00 | 86 | 1017.9 |
| 20260506003041 | 4 | 46 | 1.6 | 3.2 | 0.00 | 0.33 | 0.00 | 85 | 1017.9 |
| 20260506002535 | 3 | 46 | 0.0 | 1.6 | 0.00 | 0.33 | 0.00 | 85 | 1017.9 |
| 20260506002033 | 3 | 0 | 0.0 | 1.6 | 0.00 | 0.33 | 0.00 | 85 | 1018.0 |
| 20260506001607 | 3 | 0 | 0.0 | 1.6 | 0.00 | 0.33 | 0.00 | 85 | 1017.9 |
| 20260506001033 | 3 | 0 | 0.0 | 1.6 | 0.00 | 0.33 | 0.00 | 84 | 1018.0 |
| 20260506000535 | 3 | 0 | 0.0 | 1.6 | 0.00 | 0.33 | 0.00 | 85 | 1017.9 |
| 20260506000049 | 3 | 178 | 0.0 | 1.6 | 0.00 | 0.33 | 0.00 | 84 | 1017.8 |
| 20260505235534 | 3 | 35 | 0.0 | 3.2 | 0.00 | 0.33 | 0.00 | 84 | 1018.0 |
| 20260505235033 | 3 | 0 | 0.0 | 3.2 | 0.00 | 0.33 | 0.00 | 84 | 1017.9 |
| 20260505234550 | 4 | 124 | 0.0 | 3.2 | 0.00 | 0.33 | 0.00 | 84 | 1018.0 |
| 20260505234033 | 4 | 35 | 0.0 | 3.2 | 0.00 | 0.33 | 0.00 | 84 | 1018.0 |
| 20260505233532 | 4 | 108 | 0.0 | 3.2 | 0.00 | 0.33 | 0.00 | 83 | 1018.0 |
| 20260505233047 | 4 | 0 | 0.0 | 3.2 | 0.00 | 0.33 | 0.00 | 83 | 1018.0 |
| 20260505232533 | 4 | 0 | 1.6 | 3.2 | 0.00 | 0.33 | 0.00 | 83 | 1018.2 |
| 20260505232034 | 4 | 76 | 0.0 | 3.2 | 0.00 | 0.33 | 0.00 | 83 | 1018.2 |
| 20260505231550 | 4 | 46 | 0.0 | 3.2 | 0.00 | 0.33 | 0.00 | 82 | 1018.2 |
| 20260505231035 | 4 | 63 | 0.0 | 3.2 | 0.00 | 0.33 | 0.00 | 82 | 1018.2 |
| 20260505230533 | 4 | 46 | 0.0 | 3.2 | 0.00 | 0.33 | 0.00 | 82 | 1018.2 |
| 20260505230044 | 4 | 53 | 0.0 | 3.2 | 0.00 | 0.33 | 0.00 | 81 | 1018.1 |
| 20260505225537 | 4 | 40 | 1.6 | 3.2 | 0.00 | 0.33 | 0.33 | 81 | 1018.2 |
| 20260505225034 | 4 | 53 | 1.6 | 3.2 | 0.00 | 0.33 | 0.33 | 81 | 1018.2 |
| 20260505224543 | 4 | 76 | 0.0 | 4.8 | 0.00 | 0.33 | 0.33 | 81 | 1018.2 |
| 20260505224033 | 5 | 0 | 0.0 | 4.8 | 0.00 | 0.33 | 0.33 | 81 | 1018.2 |
| 20260505223533 | 5 | 72 | 0.0 | 4.8 | 0.00 | 0.33 | 0.33 | 80 | 1018.2 |
| 20260505223055 | 5 | 68 | 0.0 | 4.8 | 0.00 | 0.33 | 0.33 | 80 | 1018.2 |
| 20260505222534 | 5 | 89 | 0.0 | 6.4 | 0.00 | 0.33 | 0.33 | 80 | 1018.2 |
| 20260505222033 | 5 | 28 | 1.6 | 6.4 | 0.00 | 0.33 | 0.33 | 80 | 1018.2 |
| 20260505221552 | 5 | 46 | 1.6 | 6.4 | 0.00 | 0.33 | 0.33 | 80 | 1018.1 |
| 20260505221035 | 5 | 23 | 1.6 | 12.9 | 0.00 | 0.33 | 0.33 | 80 | 1018.2 |
| 20260505220532 | 5 | 77 | 3.2 | 12.9 | 0.00 | 0.33 | 0.33 | 80 | 1018.0 |
| 20260505220044 | 5 | 28 | 1.6 | 9.7 | 0.00 | 0.33 | 0.33 | 80 | 1018.1 |
| 20260505215534 | 5 | 53 | 3.2 | 9.7 | 0.00 | 0.33 | 0.33 | 80 | 1018.1 |
| 20260505215033 | 5 | 56 | 3.2 | 9.7 | 0.00 | 0.33 | 0.33 | 80 | 1018.2 |
| 20260505214600 | 5 | 46 | 1.6 | 6.4 | 0.00 | 0.33 | 0.33 | 80 | 1018.1 |
| 20260505214033 | 5 | 82 | 0.0 | 8.0 | 0.00 | 0.33 | 0.33 | 80 | 1018.0 |
| 20260505213533 | 5 | 33 | 1.6 | 11.3 | 0.00 | 0.33 | 0.33 | 79 | 1018.0 |
| 20260505213055 | 6 | 100 | 4.8 | 11.3 | 0.00 | 0.33 | 0.33 | 79 | 1017.9 |
| 20260505212533 | 6 | 161 | 1.6 | 11.3 | 0.00 | 0.33 | 0.33 | 79 | 1017.9 |
| 20260505212033 | 6 | 89 | 3.2 | 12.9 | 0.00 | 0.33 | 0.33 | 79 | 1017.9 |
| 20260505211545 | 6 | 35 | 3.2 | 12.9 | 0.00 | 0.33 | 0.33 | 79 | 1017.9 |
| 20260505211033 | 6 | 70 | 1.6 | 4.8 | 0.00 | 0.33 | 0.33 | 78 | 1017.9 |
| 20260505210534 | 6 | 59 | 1.6 | 8.0 | 0.00 | 0.33 | 0.33 | 78 | 1017.8 |
| 20260505210052 | 6 | 0 | 3.2 | 11.3 | 0.00 | 0.33 | 0.33 | 78 | 1017.8 |
| 20260505205535 | 6 | 65 | 1.6 | 12.9 | 0.00 | 0.33 | 0.33 | 78 | 1017.9 |
| 20260505205036 | 6 | 49 | 3.2 | 12.9 | 0.00 | 0.33 | 0.33 | 78 | 1017.8 |
| 20260505204545 | 6 | 46 | 3.2 | 11.3 | 0.00 | 0.33 | 0.33 | 78 | 1017.9 |
| 20260505204033 | 6 | 63 | 3.2 | 9.7 | 0.00 | 0.33 | 0.33 | 78 | 1017.9 |
| 20260505203533 | 6 | 65 | 3.2 | 9.7 | 0.00 | 0.33 | 0.33 | 78 | 1017.8 |
| 20260505203051 | 6 | 174 | 1.6 | 12.9 | 0.00 | 0.33 | 0.33 | 78 | 1017.8 |
| 20260505202533 | 6 | 150 | 4.8 | 16.1 | 0.00 | 0.33 | 0.33 | 78 | 1017.9 |
| 20260505202036 | 6 | 347 | 3.2 | 16.1 | 0.00 | 0.33 | 0.33 | 78 | 1017.8 |
| 20260505201554 | 6 | 63 | 3.2 | 16.1 | 0.00 | 0.33 | 0.33 | 78 | 1017.7 |
| 20260505201033 | 6 | 101 | 4.8 | 16.1 | 0.00 | 0.33 | 0.33 | 78 | 1017.8 |
| 20260505200533 | 6 | 75 | 4.8 | 16.1 | 0.00 | 0.33 | 0.33 | 78 | 1017.7 |
| 20260505200046 | 6 | 42 | 4.8 | 14.5 | 0.00 | 0.33 | 0.33 | 78 | 1017.7 |
| 20260505195533 | 7 | 41 | 3.2 | 11.3 | 0.00 | 0.33 | 0.33 | 77 | 1017.5 |
| 20260505195035 | 7 | 13 | 3.2 | 11.3 | 0.00 | 0.33 | 0.33 | 77 | 1017.5 |
| 20260505194543 | 7 | 23 | 3.2 | 12.9 | 0.00 | 0.33 | 0.33 | 77 | 1017.6 |
| 20260505194034 | 7 | 52 | 4.8 | 12.9 | 0.00 | 0.33 | 0.33 | 76 | 1017.6 |
| 20260505193535 | 7 | 72 | 4.8 | 20.9 | 0.00 | 0.33 | 0.33 | 76 | 1017.4 |
| 20260505193048 | 7 | 65 | 6.4 | 20.9 | 0.00 | 0.33 | 0.33 | 76 | 1017.4 |
| 20260505192532 | 7 | 27 | 4.8 | 17.7 | 0.00 | 0.33 | 0.33 | 77 | 1017.4 |
| 20260505192032 | 7 | 67 | 3.2 | 12.9 | 0.00 | 0.33 | 0.33 | 77 | 1017.5 |
| 20260505191552 | 7 | 65 | 4.8 | 12.9 | 0.00 | 0.33 | 0.33 | 77 | 1017.4 |
| 20260505191033 | 7 | 95 | 3.2 | 12.9 | 0.00 | 0.33 | 0.33 | 76 | 1017.4 |
| 20260505190533 | 7 | 49 | 4.8 | 12.9 | 0.00 | 0.33 | 0.33 | 76 | 1017.2 |
| 20260505190104 | 7 | 223 | 1.6 | 9.7 | 0.00 | 0.33 | 0.33 | 76 | 1017.3 |
| 20260505185535 | 7 | 54 | 3.2 | 11.3 | 0.00 | 0.33 | 0.33 | 75 | 1017.2 |
| 20260505185033 | 7 | 49 | 4.8 | 11.3 | 0.00 | 0.33 | 0.33 | 75 | 1017.3 |
| 20260505184601 | 7 | 96 | 4.8 | 14.5 | 0.00 | 0.33 | 0.33 | 75 | 1017.4 |
| 20260505184033 | 7 | 96 | 4.8 | 14.5 | 0.00 | 0.33 | 0.33 | 75 | 1017.2 |
| 20260505183537 | 7 | 76 | 4.8 | 17.7 | 0.00 | 0.33 | 0.33 | 74 | 1017.4 |
| 20260505183056 | 7 | 13 | 8.0 | 17.7 | 0.00 | 0.33 | 0.33 | 75 | 1017.3 |
| 20260505182536 | 8 | 47 | 6.4 | 19.3 | 0.00 | 0.33 | 0.33 | 75 | 1017.3 |
| 20260505182035 | 8 | 51 | 8.0 | 19.3 | 0.00 | 0.33 | 0.33 | 74 | 1017.3 |
| 20260505181553 | 8 | 89 | 4.8 | 16.1 | 0.00 | 0.33 | 0.33 | 74 | 1017.1 |
| 20260505181036 | 8 | 66 | 6.4 | 16.1 | 0.00 | 0.33 | 0.33 | 74 | 1017.1 |
| 20260505180535 | 8 | 65 | 3.2 | 14.5 | 0.00 | 0.33 | 0.33 | 74 | 1017.1 |
| 20260505180056 | 8 | 20 | 4.8 | 14.5 | 0.00 | 0.33 | 0.33 | 73 | 1017.1 |
| 20260505175534 | 8 | 74 | 6.4 | 16.1 | 0.00 | 0.33 | 0.33 | 73 | 1017.1 |
| 20260505175034 | 8 | 137 | 3.2 | 16.1 | 0.00 | 0.33 | 0.33 | 73 | 1017.3 |
| 20260505174550 | 8 | 39 | 6.4 | 17.7 | 0.00 | 0.33 | 0.33 | 73 | 1017.2 |
| 20260505174033 | 8 | 77 | 6.4 | 17.7 | 0.00 | 0.33 | 0.33 | 73 | 1017.2 |
| 20260505173534 | 8 | 56 | 6.4 | 16.1 | 0.00 | 0.33 | 0.33 | 73 | 1017.0 |
| 20260505173049 | 8 | 342 | 6.4 | 16.1 | 0.00 | 0.33 | 0.33 | 73 | 1017.2 |
| 20260505172534 | 8 | 32 | 3.2 | 17.7 | 0.00 | 0.33 | 0.33 | 73 | 1017.1 |
| 20260505172033 | 8 | 103 | 4.8 | 17.7 | 0.00 | 0.33 | 0.33 | 73 | 1017.0 |
| 20260505171548 | 8 | 1 | 4.8 | 17.7 | 0.00 | 0.33 | 0.33 | 73 | 1016.9 |
| 20260505171033 | 8 | 39 | 4.8 | 17.7 | 0.00 | 0.33 | 0.33 | 72 | 1017.0 |
| 20260505170533 | 8 | 49 | 4.8 | 17.7 | 0.00 | 0.33 | 0.33 | 72 | 1017.1 |
| 20260505170054 | 8 | 42 | 6.4 | 20.9 | 0.00 | 0.33 | 0.33 | 73 | 1017.1 |
| 20260505165534 | 8 | 314 | 6.4 | 20.9 | 0.00 | 0.33 | 0.33 | 73 | 1017.0 |
| 20260505165034 | 8 | 95 | 6.4 | 19.3 | 0.00 | 0.33 | 0.33 | 75 | 1017.0 |
| 20260505164547 | 8 | 49 | 4.8 | 14.5 | 0.00 | 0.33 | 0.33 | 75 | 1016.9 |
| 20260505164034 | 8 | 105 | 4.8 | 14.5 | 0.00 | 0.33 | 0.33 | 75 | 1017.0 |
| 20260505163533 | 8 | 53 | 4.8 | 16.1 | 0.00 | 0.33 | 0.33 | 75 | 1017.0 |
| 20260505163055 | 8 | 52 | 6.4 | 16.1 | 0.00 | 0.33 | 0.33 | 75 | 1017.0 |
| 20260505162533 | 8 | 130 | 6.4 | 17.7 | 0.00 | 0.33 | 0.33 | 75 | 1016.9 |
| 20260505162033 | 8 | 72 | 9.7 | 17.7 | 0.00 | 0.33 | 0.33 | 75 | 1016.8 |
| 20260505161555 | 9 | 113 | 4.8 | 20.9 | 0.00 | 0.33 | 0.33 | 76 | 1016.8 |
| 20260505161034 | 9 | 49 | 4.8 | 20.9 | 0.00 | 0.33 | 0.33 | 77 | 1016.7 |
| 20260505160536 | 9 | 37 | 4.8 | 12.9 | 0.00 | 0.33 | 0.33 | 76 | 1016.6 |
| 20260505153052 | 9 | 161 | 6.4 | 17.7 | 0.00 | 0.33 | 0.33 | 79 | 1016.3 |
| 20260505152532 | 9 | 13 | 3.2 | 9.7 | 0.00 | 0.33 | 0.33 | 78 | 1016.4 |
| 20260505152033 | 9 | 65 | 3.2 | 19.3 | 0.00 | 0.33 | 0.33 | 78 | 1016.4 |
| 20260505151542 | 9 | 44 | 6.4 | 22.5 | 0.00 | 0.33 | 0.33 | 78 | 1016.4 |
| 20260505151034 | 9 | 83 | 8.0 | 22.5 | 0.00 | 0.33 | 0.33 | 79 | 1016.3 |
| 20260505150536 | 9 | 89 | 4.8 | 16.1 | 0.00 | 0.33 | 0.33 | 79 | 1016.4 |
| 20260505150107 | 10 | 32 | 4.8 | 14.5 | 0.05 | 0.33 | 0.33 | 79 | 1016.2 |
| 20260505140534 | 11 | 93 | 4.8 | 20.9 | 0.08 | 0.28 | 0.28 | 78 | 1016.2 |
| 20260505125033 | 11 | 305 | 1.6 | 8.0 | 0.03 | 0.18 | 0.18 | 77 | 1016.0 |
| 20260505124547 | 11 | 314 | 1.6 | 6.4 | 0.03 | 0.15 | 0.15 | 76 | 1015.9 |
| 20260505124032 | 11 | 314 | 3.2 | 8.0 | 0.00 | 0.13 | 0.13 | 75 | 1015.9 |
| 20260505123533 | 11 | 317 | 3.2 | 8.0 | 0.00 | 0.13 | 0.13 | 76 | 1015.9 |
| 20260505123105 | 11 | 280 | 1.6 | 6.4 | 0.03 | 0.13 | 0.13 | 78 | 1015.9 |
| 20260505122535 | 11 | 241 | 1.6 | 6.4 | 0.08 | 0.13 | 0.13 | 82 | 1015.9 |
| 20260505122035 | 11 | 269 | 1.6 | 6.4 | 0.08 | 0.13 | 0.13 | 83 | 1015.9 |
| 20260505121553 | 11 | 241 | 1.6 | 6.4 | 0.08 | 0.13 | 0.13 | 83 | 1015.8 |
| 20260505121038 | 10 | 314 | 0.0 | 6.4 | 0.08 | 0.13 | 0.13 | 82 | 1015.8 |
| 20260505120533 | 10 | 20 | 1.6 | 6.4 | 0.08 | 0.13 | 0.13 | 82 | 1015.8 |
| 20260505120049 | 10 | 178 | 1.6 | 4.8 | 0.08 | 0.13 | 0.13 | 81 | 1015.7 |
| 20260505115535 | 10 | 296 | 1.6 | 4.8 | 0.08 | 0.13 | 0.13 | 80 | 1015.7 |
| 20260505115033 | 11 | 218 | 1.6 | 4.8 | 0.08 | 0.13 | 0.13 | 80 | 1015.8 |
| 20260505114556 | 11 | 152 | 0.0 | 4.8 | 0.08 | 0.10 | 0.10 | 78 | 1015.8 |
| 20260505114033 | 11 | 0 | 0.0 | 6.4 | 0.08 | 0.10 | 0.10 | 77 | 1015.8 |
| 20260505113532 | 11 | 89 | 1.6 | 8.0 | 0.08 | 0.10 | 0.10 | 76 | 1015.9 |
| 20260505113050 | 11 | 72 | 3.2 | 9.7 | 0.05 | 0.08 | 0.08 | 76 | 1015.9 |
| 20260505112535 | 11 | 77 | 3.2 | 9.7 | 0.00 | 0.05 | 0.05 | 74 | 1015.9 |
| 20260505112035 | 12 | 68 | 3.2 | 9.7 | 0.00 | 0.05 | 0.05 | 73 | 1015.9 |
| 20260505111558 | 12 | 115 | 3.2 | 9.7 | 0.00 | 0.03 | 0.03 | 71 | 1015.8 |
| 20260505111033 | 12 | 68 | 3.2 | 8.0 | 0.00 | 0.03 | 0.03 | 71 | 1015.7 |
| 20260505110535 | 12 | 6 | 3.2 | 9.7 | 0.00 | 0.03 | 0.03 | 72 | 1015.6 |
| 20260505102033 | 10 | 292 | 1.6 | 6.4 | 0.03 | 0.03 | 0.03 | 81 | 1015.9 |
| 20260505101546 | 10 | 190 | 0.0 | 3.2 | 0.03 | 0.03 | 0.03 | 81 | 1015.9 |
| 20260505101033 | 10 | 241 | 0.0 | 4.8 | 0.03 | 0.03 | 0.03 | 80 | 1016.0 |
| 20260505100536 | 10 | 241 | 1.6 | 8.0 | 0.03 | 0.03 | 0.03 | 79 | 1016.0 |
| 20260505100100 | 10 | 269 | 1.6 | 9.7 | 0.03 | 0.03 | 0.03 | 77 | 1016.1 |
| 20260505095534 | 10 | 328 | 1.6 | 9.7 | 0.00 | 0.00 | 0.00 | 76 | 1016.1 |
| 20260505095034 | 10 | 335 | 3.2 | 12.9 | 0.00 | 0.00 | 0.00 | 75 | 1016.0 |
| 20260505094550 | 11 | 25 | 4.8 | 12.9 | 0.00 | 0.00 | 0.00 | 73 | 1016.0 |
| 20260505094033 | 11 | 25 | 3.2 | 12.9 | 0.00 | 0.00 | 0.00 | 72 | 1015.9 |
| 20260505093533 | 11 | 32 | 3.2 | 11.3 | 0.00 | 0.00 | 0.00 | 72 | 1015.7 |
| 20260505093049 | 11 | 311 | 3.2 | 11.3 | 0.00 | 0.00 | 0.00 | 71 | 1015.8 |
| 20260505092533 | 11 | 314 | 3.2 | 9.7 | 0.00 | 0.00 | 0.00 | 72 | 1015.8 |
| 20260505092033 | 11 | 331 | 4.8 | 9.7 | 0.00 | 0.00 | 0.00 | 73 | 1015.7 |
| 20260505091548 | 11 | 18 | 4.8 | 12.9 | 0.00 | 0.00 | 0.00 | 74 | 1015.7 |
| 20260505091035 | 11 | 33 | 3.2 | 12.9 | 0.00 | 0.00 | 0.00 | 74 | 1015.7 |
| 20260505090534 | 11 | 353 | 6.4 | 12.9 | 0.00 | 0.00 | 0.00 | 76 | 1015.8 |
| 20260505090055 | 10 | 6 | 1.6 | 8.0 | 0.00 | 0.00 | 0.00 | 78 | 1015.7 |
| 20260505085535 | 10 | 296 | 3.2 | 8.0 | 0.00 | 0.00 | 0.00 | 77 | 1015.8 |
| 20260505085033 | 10 | 223 | 3.2 | 8.0 | 0.00 | 0.00 | 0.00 | 79 | 1015.8 |
| 20260505084544 | 10 | 46 | 1.6 | 12.9 | 0.00 | 0.00 | 0.00 | 80 | 1015.8 |
| 20260505084034 | 10 | 56 | 0.0 | 12.9 | 0.00 | 0.00 | 0.00 | 80 | 1015.8 |
| 20260505083536 | 10 | 296 | 3.2 | 9.7 | 0.00 | 0.00 | 0.00 | 80 | 1015.8 |
| 20260505083044 | 10 | 314 | 3.2 | 8.0 | 0.00 | 0.00 | 0.00 | 80 | 1015.8 |
| 20260505082535 | 10 | 338 | 1.6 | 8.0 | 0.00 | 0.00 | 0.00 | 80 | 1015.9 |
| 20260505082033 | 9 | 1 | 1.6 | 8.0 | 0.00 | 0.00 | 0.00 | 81 | 1015.8 |
| 20260505081550 | 9 | 329 | 3.2 | 11.3 | 0.00 | 0.00 | 0.00 | 81 | 1015.9 |
| 20260505081033 | 9 | 342 | 6.4 | 11.3 | 0.00 | 0.00 | 0.00 | 81 | 1015.8 |
| 20260505080535 | 9 | 18 | 6.4 | 9.7 | 0.00 | 0.00 | 0.00 | 82 | 1015.9 |
| 20260505080053 | 9 | 37 | 3.2 | 11.3 | 0.00 | 0.00 | 0.00 | 82 | 1015.8 |
| 20260505075533 | 8 | 1 | 4.8 | 12.9 | 0.00 | 0.00 | 0.00 | 82 | 1015.8 |
| 20260505075034 | 8 | 0 | 3.2 | 12.9 | 0.00 | 0.00 | 0.00 | 84 | 1015.7 |
| 20260505074544 | 8 | 337 | 3.2 | 8.0 | 0.00 | 0.00 | 0.00 | 84 | 1015.8 |
| 20260505074036 | 8 | 335 | 4.8 | 9.7 | 0.00 | 0.00 | 0.00 | 85 | 1015.8 |
| 20260505073532 | 8 | 346 | 3.2 | 9.7 | 0.00 | 0.00 | 0.00 | 84 | 1015.8 |
| 20260505073054 | 8 | 259 | 3.2 | 9.7 | 0.00 | 0.00 | 0.00 | 85 | 1015.7 |
| 20260505072535 | 8 | 314 | 4.8 | 9.7 | 0.00 | 0.00 | 0.00 | 85 | 1015.7 |
| 20260505072034 | 8 | 302 | 4.8 | 11.3 | 0.00 | 0.00 | 0.00 | 86 | 1015.7 |
| 20260505071548 | 8 | 318 | 3.2 | 11.3 | 0.00 | 0.00 | 0.00 | 86 | 1015.7 |
| 20260505071034 | 8 | 344 | 3.2 | 9.7 | 0.00 | 0.00 | 0.00 | 86 | 1015.7 |
| 20260505070533 | 8 | 9 | 3.2 | 9.7 | 0.00 | 0.00 | 0.00 | 87 | 1015.7 |
| 20260505070053 | 8 | 6 | 3.2 | 9.7 | 0.00 | 0.00 | 0.00 | 87 | 1015.7 |
| 20260505065533 | 8 | 6 | 3.2 | 8.0 | 0.00 | 0.00 | 0.00 | 87 | 1015.6 |
| 20260505065034 | 8 | 338 | 3.2 | 8.0 | 0.00 | 0.00 | 0.00 | 87 | 1015.6 |
| 20260505064545 | 8 | 234 | 3.2 | 8.0 | 0.00 | 0.00 | 0.00 | 87 | 1015.7 |
| 20260505064035 | 7 | 18 | 3.2 | 8.0 | 0.00 | 0.00 | 0.00 | 88 | 1015.6 |
| 20260505063535 | 7 | 352 | 3.2 | 8.0 | 0.00 | 0.00 | 0.00 | 88 | 1015.6 |
| 20260505063053 | 7 | 248 | 1.6 | 9.7 | 0.00 | 0.00 | 0.00 | 88 | 1015.7 |
| 20260505062535 | 7 | 269 | 3.2 | 9.7 | 0.00 | 0.00 | 0.00 | 88 | 1015.6 |
| 20260505062034 | 7 | 30 | 3.2 | 8.0 | 0.00 | 0.00 | 0.00 | 89 | 1015.6 |
| 20260505061542 | 7 | 0 | 1.6 | 6.4 | 0.00 | 0.00 | 0.00 | 89 | 1015.6 |
| 20260505061035 | 7 | 20 | 0.0 | 4.8 | 0.00 | 0.00 | 0.00 | 89 | 1015.5 |
| 20260505060534 | 7 | 250 | 1.6 | 4.8 | 0.00 | 0.00 | 0.00 | 89 | 1015.4 |
| 20260505060046 | 7 | 15 | 1.6 | 4.8 | 0.00 | 0.00 | 0.00 | 89 | 1015.4 |
| 20260505055534 | 7 | 0 | 1.6 | 4.8 | 0.00 | 0.00 | 0.00 | 89 | 1015.3 |
| 20260505055036 | 7 | 269 | 1.6 | 4.8 | 0.00 | 0.00 | 0.00 | 89 | 1015.3 |
| 20260505054556 | 7 | 285 | 1.6 | 4.8 | 0.00 | 0.00 | 0.00 | 89 | 1015.4 |
| 20260505054033 | 7 | 241 | 1.6 | 4.8 | 0.00 | 0.00 | 0.00 | 89 | 1015.4 |
| 20260505053532 | 7 | 206 | 1.6 | 4.8 | 0.00 | 0.00 | 0.00 | 88 | 1015.4 |
| 20260505053045 | 7 | 231 | 1.6 | 6.4 | 0.00 | 0.00 | 0.00 | 88 | 1015.4 |
| 20260505052535 | 7 | 231 | 3.2 | 6.4 | 0.00 | 0.00 | 0.00 | 88 | 1015.4 |
| 20260505052034 | 7 | 223 | 1.6 | 4.8 | 0.00 | 0.00 | 0.00 | 88 | 1015.3 |